Regional Weather Roundup
Issued by NWS

Home | Current Version | Previous Version | Text Only | Print | Product List | Glossary Off
Versions: 1 2 3 4 5 6 7 8 9 10 11 12 13 14 15 16 17 18 19 20 21 22 23 24 25 26 27 28 29 30 31 32 33 34 35 36 37 38 39 40 41 42 43 44 45 46 47 48 49 50

000
ASUS43 KFSD 181910
RWRSD

WEATHER ROUNDUP FOR SOUTH DAKOTA
NATIONAL WEATHER SERVICE SIOUX FALLS SD
200 PM CDT THU SEP 18 2014

NOTE: "FAIR" INDICATES FEW OR NO CLOUDS BELOW 12,000 FEET WITH NO
SIGNIFICANT WEATHER AND/OR OBSTRUCTIONS TO VISIBILITY.


SDZ001>005-009-010-012>017-182000-
NORTHWEST AND NORTH CENTRAL SOUTH DAKOTA

CITY           SKY/WX    TMP DP  RH WIND       PRES   REMARKS
BUFFALO          N/A     79  55  43 S13       29.73F
FAITH            N/A     77  62  59 S15G22    29.80F
MOBRIDGE       SUNNY     80  61  52 S17G28    29.79F
$$

SDZ012>016-024>037-041>051-057-063-072>074-182000-
SOUTHWEST AND SOUTH CENTRAL SOUTH DAKOTA

CITY           SKY/WX    TMP DP  RH WIND       PRES   REMARKS
RAPID CTY ARPT MOSUNNY   80  55  42 SE12      29.82F
PIERRE         SUNNY     81  58  45 S23G30    29.81F
CUSTER         SUNNY     84  36  18 W10G18    29.98F
ELLSWORTH AFB  PTSUNNY   80  57  46 SE10      29.82F
PHILIP         SUNNY     82  62  50 SE8       29.79F
PINE RIDGE     SUNNY     84  58  40 S12       29.86F
WINNER         FAIR      80  57  45 S26       29.88F
$$

SDZ004>011-016>023-039-040-182000-
NORTHEAST SOUTH DAKOTA

CITY           SKY/WX    TMP DP  RH WIND       PRES   REMARKS
ABERDEEN       PTSUNNY   77  62  59 S22G29    29.88F
WATERTOWN      CLOUDY    73  59  61 S16G25    29.95S
SISSETON         N/A     67  58  72 S12       29.93F
$$

SDZ017-020-022-023-036>040-048>070-182000-
SOUTHEAST SOUTH DAKOTA

CITY           SKY/WX    TMP DP  RH WIND       PRES   REMARKS
SIOUX FALLS    MOSUNNY   76  54  46 S18G25    29.98F
HURON          MOSUNNY   77  61  57 S18G29    29.90F
CHAMBERLAIN    SUNNY     74  60  60 S20G28    29.89F
MITCHELL       PTSUNNY   75  61  61 S17G26    29.93F
YANKTON        MOSUNNY   73  55  53 S18       29.97F
$$

ABBREVIATIONS USED IN REMARKS
   TC - TEMPERATURE IN CELSIUS
  WCI - WIND CHILL INDEX
   HX - HEAT INDEX
  VSB - VISIBILITY



USA.gov is the U.S. government's official web portal to all federal, state and local government web resources and services.